Portada
METAR-TAF:

METAR-TAF

Aeroports :

Esperance, Austràlia

latitud: 33-41-04S, longitud: 121-49-22E, altitud: 143 m

Observació

L'informe es va fer fa 33 minuts, a les 07:00 UTC
Vent 6 kt del Sud-Est
Temperatura 13°C
Humitat 62%
Pressió 1027 hPa
Visibilitat 10 km o més
Núvols disperses a una alçada de 3600 ft

METAR: YESP 250700Z AUTO 14006KT 9999 // SCT036 13/06 Q1027

Hora: 15:33 (07:33 UTC)


TAF: manca

Observacions i pronòstics meteorològics de més de 4000 aeroports (METAR i TAF).

Les estacions disponibles són els punts grocs i vermells al mapa.

Posi el ratolí al punt desitjat per veure el nom de l'estació.

Feu clic per veure les observacions i els pronòstics meteorològics.

Per canviar el mapa: feu clic els botons verds amb una creu de color negre per apropar; al botó verd amb un guió per allunyar la imatge; o en les fletxes verdes per a mapes adjacents.


METAR-TAF: